TimeCDT,TemperatureF,Dew PointF,Humidity,Sea Level PressureIn,VisibilityMPH,Wind Direction,Wind SpeedMPH,Gust SpeedMPH,PrecipitationIn,Events,Conditions,WindDirDegrees,DateUTC
12:54 AM,61.0,48.0,62,29.58,10.0,SSE,10.4,-,N/A,,Clear,150,2013-10-04 05:54:00
1:54 AM,61.0,48.0,62,29.57,10.0,South,10.4,-,N/A,,Clear,180,2013-10-04 06:54:00
2:54 AM,64.9,53.1,65,29.55,10.0,South,15.0,-,N/A,,Clear,180,2013-10-04 07:54:00
3:54 AM,62.1,52.0,70,29.55,10.0,SSW,10.4,-,N/A,,Clear,200,2013-10-04 08:54:00
4:54 AM,57.9,51.1,78,29.55,10.0,South,4.6,-,N/A,,Clear,170,2013-10-04 09:54:00
5:54 AM,55.9,51.1,84,29.57,10.0,SSW,6.9,-,N/A,,Clear,200,2013-10-04 10:54:00
6:54 AM,54.0,48.9,83,29.59,10.0,SSW,5.8,-,N/A,,Clear,210,2013-10-04 11:54:00
7:54 AM,55.0,46.9,74,29.60,10.0,SW,9.2,-,N/A,,Clear,220,2013-10-04 12:54:00
8:54 AM,55.9,44.1,64,29.65,10.0,WSW,12.7,-,N/A,,Clear,240,2013-10-04 13:54:00
9:54 AM,53.1,48.9,86,29.69,10.0,WNW,10.4,-,N/A,,Partly Cloudy,300,2013-10-04 14:54:00
10:09 AM,53.6,51.8,94,29.75,5.0,West,10.4,-,N/A,,Mostly Cloudy,280,2013-10-04 15:09:00
10:36 AM,60.8,51.8,72,29.78,10.0,WNW,19.6,23.0,N/A,,Mostly Cloudy,290,2013-10-04 15:36:00
10:47 AM,60.8,51.8,72,29.79,10.0,West,17.3,24.2,N/A,,Scattered Clouds,280,2013-10-04 15:47:00
10:54 AM,62.1,52.0,70,29.73,10.0,WNW,18.4,-,N/A,,Scattered Clouds,290,2013-10-04 15:54:00
11:30 AM,62.6,51.8,68,29.81,10.0,WNW,20.7,31.1,N/A,,Mostly Cloudy,290,2013-10-04 16:30:00
11:54 AM,63.0,51.1,65,29.76,10.0,WNW,17.3,-,N/A,,Mostly Cloudy,300,2013-10-04 16:54:00
12:05 PM,64.4,51.8,64,29.82,10.0,WNW,17.3,26.5,N/A,,Scattered Clouds,290,2013-10-04 17:05:00
12:54 PM,66.0,48.0,52,29.78,10.0,NW,20.7,27.6,N/A,,Clear,310,2013-10-04 17:54:00
1:54 PM,66.9,43.0,42,29.79,10.0,NW,19.6,26.5,N/A,,Clear,320,2013-10-04 18:54:00
2:54 PM,68.0,37.0,32,29.79,6.0,NW,20.7,29.9,N/A,,Haze,320,2013-10-04 19:54:00
3:54 PM,66.0,36.0,33,29.83,6.0,NNW,24.2,31.1,N/A,,Haze,340,2013-10-04 20:54:00
4:54 PM,63.0,33.1,33,29.86,5.0,North,21.9,31.1,N/A,,Haze,350,2013-10-04 21:54:00
5:54 PM,60.1,30.9,33,29.91,7.0,North,25.3,32.2,N/A,,Clear,350,2013-10-04 22:54:00
6:54 PM,55.0,30.0,38,29.94,7.0,NNW,23.0,31.1,N/A,,Clear,340,2013-10-04 23:54:00
7:54 PM,51.1,30.0,44,29.96,9.0,North,24.2,35.7,N/A,,Clear,350,2013-10-05 00:54:00
8:54 PM,50.0,28.9,44,30.00,9.0,NNW,31.1,40.3,N/A,,Clear,340,2013-10-05 01:54:00
9:54 PM,46.9,28.9,50,30.06,9.0,NNW,31.1,41.4,N/A,,Clear,340,2013-10-05 02:54:00
10:54 PM,44.1,28.0,53,30.12,10.0,NNW,20.7,29.9,N/A,,Clear,340,2013-10-05 03:54:00
11:54 PM,43.0,27.0,53,30.13,10.0,North,24.2,33.4,N/A,,Scattered Clouds,350,2013-10-05 04:54:00